When you browse on this site, cookies collect data to enhance your experience and personalize the content and advertising you see.
Visit our Privacy Policy to learn more. By continuing to use the site, you agree to this use of cookies and data.
  • En España
  • Lista de países
  • Para 7 días
  • Temperatura del agua
  • El tiempo en el mapa
  • Informadores
  • user-avatar
    Iniciar sesión

    Tiempo cada hora Iquique

    Hoy, 23 Enero, Jueves

    Tiempo Temperatura Precipitaciones Viento Presión Humedad
    00:00 +27°C° 0 mm 1 mps 760 mmHg 81%
    01:00 +27°C° 0 mm 1 mps 759 mmHg 82%
    02:00 +27°C° 0 mm 1 mps 759 mmHg 82%
    03:00 +27°C° 0 mm 1 mps 759 mmHg 81%
    04:00 +25°C° 0 mm 0 mps 759 mmHg 81%
    05:00 +25°C° 0 mm 0 mps 759 mmHg 80%
    06:00 +25°C° 0 mm 0 mps 760 mmHg 79%
    07:00 +25°C° 0 mm 0 mps 760 mmHg 77%
    08:00 +28°C° 0 mm 1 mps 760 mmHg 72%
    09:00 +29°C° 0 mm 1 mps 760 mmHg 67%
    10:00 +30°C° 0 mm 1 mps 760 mmHg 61%
    11:00 +30°C° 0 mm 2 mps 760 mmHg 62%
    12:00 +30°C° 0 mm 2 mps 759 mmHg 63%
    13:00 +30°C° 0 mm 2 mps 759 mmHg 63%
    14:00 +30°C° 0 mm 2 mps 759 mmHg 66%
    15:00 +29°C° 0 mm 2 mps 759 mmHg 69%
    16:00 +28°C° 0 mm 2 mps 758 mmHg 72%
    17:00 +28°C° 0 mm 2 mps 759 mmHg 76%
    18:00 +27°C° 0 mm 1 mps 759 mmHg 80%
    19:00 +27°C° 0 mm 1 mps 760 mmHg 83%
    20:00 +27°C° 0 mm 1 mps 760 mmHg 83%
    21:00 +27°C° 0 mm 1 mps 760 mmHg 82%
    22:00 +25°C° 0 mm 0 mps 760 mmHg 81%
    23:00 +25°C° 0 mm 0 mps 760 mmHg 82%

    Mañana, 24 Enero, Viernes

    Tiempo Temperatura Precipitaciones Viento Presión Humedad
    00:00 +27°C° 0 mm 1 mps 759 mmHg 83%
    01:00 +27°C° 0 mm 1 mps 759 mmHg 84%
    02:00 +27°C° 0 mm 1 mps 759 mmHg 84%
    03:00 +26°C° 0 mm 1 mps 759 mmHg 85%
    04:00 +26°C° 0 mm 1 mps 758 mmHg 85%
    05:00 +27°C° 0 mm 1 mps 759 mmHg 82%
    06:00 +27°C° 0 mm 1 mps 759 mmHg 78%
    07:00 +26°C° 0 mm 0 mps 759 mmHg 75%
    08:00 +29°C° 0 mm 1 mps 759 mmHg 72%
    09:00 +29°C° 0 mm 2 mps 759 mmHg 69%
    10:00 +30°C° 0 mm 3 mps 759 mmHg 66%
    11:00 +30°C° 0 mm 3 mps 759 mmHg 68%
    12:00 +30°C° 0 mm 3 mps 759 mmHg 71%
    13:00 +29°C° 0 mm 2 mps 759 mmHg 73%
    14:00 +29°C° 0 mm 2 mps 758 mmHg 75%
    15:00 +28°C° 0 mm 2 mps 758 mmHg 76%
    16:00 +28°C° 0 mm 2 mps 758 mmHg 78%
    17:00 +27°C° 0 mm 2 mps 758 mmHg 79%
    18:00 +27°C° 0 mm 1 mps 759 mmHg 81%
    19:00 +26°C° 0 mm 1 mps 759 mmHg 83%
    20:00 +27°C° 0 mm 1 mps 760 mmHg 82%
    21:00 +27°C° 0 mm 1 mps 760 mmHg 80%
    22:00 +25°C° 0 mm 0 mps 760 mmHg 79%
    23:00 +25°C° 0 mm 0 mps 760 mmHg 79%

    Pasado mañana, 25 Enero, Sábado

    Tiempo Temperatura Precipitaciones Viento Presión Humedad
    00:00 +27°C° 0 mm 1 mps 759 mmHg 79%
    01:00 +27°C° 0 mm 1 mps 759 mmHg 79%
    02:00 +27°C° 0 mm 1 mps 759 mmHg 81%
    03:00 +26°C° 0 mm 1 mps 759 mmHg 83%
    04:00 +26°C° 0 mm 1 mps 759 mmHg 85%
    05:00 +26°C° 0 mm 1 mps 759 mmHg 85%
    06:00 +26°C° 0 mm 1 mps 759 mmHg 85%
    07:00 +26°C° 0 mm 1 mps 759 mmHg 85%
    08:00 +27°C° 0 mm 1 mps 759 mmHg 81%
    09:00 +28°C° 0 mm 1 mps 760 mmHg 77%
    10:00 +28°C° 0 mm 1 mps 760 mmHg 74%
    11:00 +29°C° 0 mm 2 mps 759 mmHg 72%
    12:00 +29°C° 0 mm 2 mps 759 mmHg 70%
    13:00 +29°C° 0 mm 3 mps 758 mmHg 69%
    14:00 +29°C° 0 mm 3 mps 758 mmHg 69%
    15:00 +29°C° 0 mm 3 mps 758 mmHg 69%
    16:00 +29°C° 0 mm 3 mps 758 mmHg 69%
    17:00 +28°C° 0 mm 2 mps 758 mmHg 72%
    18:00 +27°C° 0 mm 2 mps 759 mmHg 75%
    19:00 +27°C° 0 mm 1 mps 759 mmHg 78%
    20:00 +27°C° 0 mm 1 mps 760 mmHg 77%
    21:00 +27°C° 0 mm 1 mps 760 mmHg 76%
    22:00 +25°C° 0 mm 0 mps 760 mmHg 75%
    23:00 +25°C° 0 mm 0 mps 760 mmHg 76%

    26 Enero, Domingo

    Tiempo Temperatura Precipitaciones Viento Presión Humedad
    00:00 +27°C° 0 mm 1 mps 760 mmHg 78%
    01:00 +26°C° 0 mm 1 mps 759 mmHg 80%
    02:00 +26°C° 0 mm 1 mps 759 mmHg 81%
    03:00 +26°C° 0 mm 1 mps 759 mmHg 83%
    04:00 +26°C° 0 mm 1 mps 759 mmHg 84%
    05:00 +26°C° 0 mm 1 mps 760 mmHg 82%
    06:00 +26°C° 0 mm 1 mps 760 mmHg 81%
    07:00 +26°C° 0 mm 1 mps 760 mmHg 80%
    08:00 +27°C° 0 mm 1 mps 760 mmHg 75%
    09:00 +29°C° 0 mm 2 mps 760 mmHg 71%
    10:00 +30°C° 0 mm 3 mps 760 mmHg 66%
    11:00 +30°C° 0 mm 3 mps 760 mmHg 67%
    12:00 +30°C° 0 mm 3 mps 759 mmHg 68%
    13:00 +30°C° 0 mm 3 mps 759 mmHg 68%
    14:00 +29°C° 0 mm 3 mps 759 mmHg 69%
    15:00 +29°C° 0 mm 3 mps 758 mmHg 69%
    16:00 +28°C° 0 mm 3 mps 758 mmHg 69%
    17:00 +28°C° 0 mm 2 mps 758 mmHg 71%
    18:00 +27°C° 0 mm 2 mps 759 mmHg 72%
    19:00 +27°C° 0 mm 1 mps 759 mmHg 73%
    20:00 +27°C° 0 mm 1 mps 760 mmHg 73%
    21:00 +27°C° 0 mm 1 mps 760 mmHg 72%
    22:00 +27°C° 0 mm 1 mps 761 mmHg 71%
    23:00 +27°C° 0 mm 1 mps 760 mmHg 74%

    27 Enero, Lunes

    Tiempo Temperatura Precipitaciones Viento Presión Humedad
    00:00 +26°C° 0 mm 1 mps 760 mmHg 76%
    01:00 +26°C° 0 mm 1 mps 760 mmHg 79%
    02:00 +26°C° 0 mm 1 mps 760 mmHg 78%
    03:00 +26°C° 0 mm 1 mps 759 mmHg 78%
    04:00 +24°C° 0 mm 0 mps 759 mmHg 78%
    05:00 +26°C° 0 mm 1 mps 759 mmHg 78%
    06:00 +26°C° 0 mm 1 mps 759 mmHg 78%
    07:00 +26°C° 0 mm 1 mps 760 mmHg 78%
    08:00 +27°C° 0 mm 2 mps 759 mmHg 74%
    09:00 +28°C° 0 mm 2 mps 759 mmHg 70%
    10:00 +29°C° 0 mm 3 mps 759 mmHg 66%
    11:00 +30°C° 0 mm 3 mps 759 mmHg 65%
    12:00 +30°C° 0 mm 4 mps 759 mmHg 65%
    13:00 +30°C° 0 mm 4 mps 758 mmHg 64%
    14:00 +30°C° 0 mm 4 mps 758 mmHg 65%
    15:00 +29°C° 0 mm 3 mps 758 mmHg 66%
    16:00 +29°C° 0 mm 3 mps 757 mmHg 66%
    17:00 +28°C° 0 mm 3 mps 758 mmHg 69%
    18:00 +27°C° 0 mm 2 mps 758 mmHg 72%
    19:00 +27°C° 0 mm 1 mps 758 mmHg 75%
    20:00 +27°C° 0 mm 2 mps 759 mmHg 73%
    21:00 +27°C° 0 mm 2 mps 759 mmHg 71%
    22:00 +27°C° 0 mm 2 mps 760 mmHg 69%
    23:00 +27°C° 0 mm 2 mps 760 mmHg 71%

    28 Enero, Martes

    Tiempo Temperatura Precipitaciones Viento Presión Humedad
    00:00 +27°C° 0 mm 2 mps 759 mmHg 73%
    01:00 +26°C° 0 mm 2 mps 759 mmHg 76%
    02:00 +26°C° 0 mm 3 mps 759 mmHg 77%
    03:00 +26°C° 0 mm 3 mps 759 mmHg 79%
    04:00 +25°C° 0 mm 3 mps 758 mmHg 81%
    05:00 +25°C° 0 mm 3 mps 759 mmHg 81%
    06:00 +26°C° 0 mm 2 mps 759 mmHg 81%
    07:00 +26°C° 0 mm 2 mps 759 mmHg 81%
    08:00 +27°C° 0 mm 3 mps 759 mmHg 76%
    09:00 +28°C° 0 mm 3 mps 759 mmHg 71%
    10:00 +29°C° 0 mm 3 mps 759 mmHg 66%
    11:00 +29°C° 0 mm 3 mps 759 mmHg 65%
    12:00 +29°C° 0 mm 4 mps 759 mmHg 64%
    13:00 +29°C° 0 mm 4 mps 758 mmHg 63%
    14:00 +29°C° 0 mm 3 mps 758 mmHg 65%
    15:00 +28°C° 0 mm 3 mps 758 mmHg 67%
    16:00 +27°C° 0 mm 3 mps 758 mmHg 69%
    17:00 +27°C° 0 mm 3 mps 759 mmHg 72%
    18:00 +26°C° 0 mm 2 mps 759 mmHg 74%
    19:00 +26°C° 0 mm 2 mps 759 mmHg 76%
    20:00 +26°C° 0 mm 1 mps 760 mmHg 75%
    21:00 +26°C° 0 mm 1 mps 760 mmHg 74%
    22:00 +26°C° 0 mm 1 mps 760 mmHg 72%
    23:00 +26°C° 0 mm 1 mps 760 mmHg 74%
    Mostrar más